Location: Unspecified
(0.0000°N, 0.0000°E)
Time: 05:54:16
(UTC+01:00)

N. Korean satellite - Visible Passes

Search period start: 19 November 2019 00:00
Search period end: 29 November 2019 00:00
Orbit: 456 x 506 km, 97.2° (Epoch: 18 November)

Date Brightness Start Highest point End Pass type
(mag) Time Alt. Az. Time Alt. Az. Time Alt. Az.
19 Nov 9.9 05:48:56 10° ENE 05:51:14 16° E 05:53:30 10° SE visible
19 Nov 9.8 19:08:58 10° SSW 19:11:34 19° W 19:14:12 10° NW visible
22 Nov 8.8 06:05:12 10° NE 06:08:23 30° E 06:11:30 10° SSE visible
22 Nov 10.6 19:28:11 10° WSW 19:28:42 10° W 19:29:14 10° W visible
23 Nov 10.1 05:41:39 10° ENE 05:43:02 12° E 05:44:25 10° SE visible
25 Nov 7.1 06:21:59 10° NNE 06:25:30 63° E 06:28:58 10° S visible
26 Nov 9.4 05:57:21 10° NE 06:00:09 22° E 06:02:55 10° SSE visible
26 Nov 10.0 19:18:31 10° SW 19:20:29 14° W 19:22:28 10° WNW visible
